CW8593 Gava ES current weather conditions

sailwx.info

Wind from 318 at 0 knots gusting 2

Air temperature 22.2° C
Dewpoint 17.4° C

Last reported at 2016-Sep-29 07:52 UTC.
Time now 2016-Sep-29 08:31 UTC

Location: N 41°18' E 001°60'.
View on Google Maps.

See reports from other nearby stations

  
Tides and Currents Weather Stations Pressure Air Temp Water Temp Dewpoint Dewpoint Depression Visibility Wind Speed Wind Dir Waves Ship Positions
date/time (UTC)wind fromknots sea level pressurealtimeterstation pressurevisibilityair tempwater tempwave heightnotes
2016-Sep-29 07:52 318 0 gusting 2 22.2
2016-Sep-29 07:47 317 22.2
2016-Sep-29 07:37 317 22.2
2016-Sep-29 07:32 317 21.7
2016-Sep-29 07:27 317 21.7
2016-Sep-29 06:52 317 20.0
2016-Sep-29 06:47 317 19.4
2016-Sep-29 06:37 317 18.9
2016-Sep-29 06:32 317 18.9
2016-Sep-29 06:27 317 18.3
2016-Sep-29 06:12 317 18.3
2016-Sep-29 06:07 317 18.3
2016-Sep-29 06:02 317 18.3
2016-Sep-29 05:57 317 18.3
2016-Sep-29 05:47 317 18.3
2016-Sep-29 05:37 317 18.3
2016-Sep-29 05:32 317 18.3
2016-Sep-29 05:22 317 18.3
2016-Sep-29 05:12 317 18.9
2016-Sep-29 05:07 317 18.9
2016-Sep-29 05:02 317 0 gusting 1 18.9
2016-Sep-29 04:42 317 0 gusting 2 18.9
2016-Sep-29 04:37 317 0 gusting 2 18.9
2016-Sep-29 04:32 316 1 gusting 2 18.9
2016-Sep-29 04:27 323 2 gusting 4 18.9
2016-Sep-29 04:22 321 2 gusting 6 18.9
2016-Sep-29 04:12 314 1 gusting 4 18.9
2016-Sep-29 04:07 314 2 gusting 4 18.9
2016-Sep-29 04:02 323 2 gusting 4 18.9
2016-Sep-29 03:37 338 1 gusting 4 18.9
2016-Sep-29 03:27 301 18.9
2016-Sep-29 03:22 301 18.9
2016-Sep-29 03:17 301 18.9
2016-Sep-29 03:07 301 19.4
2016-Sep-29 02:57 301 19.4
2016-Sep-29 02:47 302 1 gusting 2 19.4
2016-Sep-29 02:32 324 1 gusting 4 19.4
2016-Sep-29 02:12 316 3 gusting 6 19.4
2016-Sep-29 02:02 308 2 gusting 5 19.4
2016-Sep-29 01:57 319 2 gusting 5 19.4
2016-Sep-29 01:52 341 2 gusting 5 19.4
2016-Sep-29 01:47 326 2 gusting 5 19.4
2016-Sep-29 01:37 310 1 gusting 4 19.4
2016-Sep-29 01:32 308 2 gusting 5 19.4
2016-Sep-29 01:27 311 4 gusting 5 19.4
2016-Sep-29 01:17 307 2 gusting 6 20.0
2016-Sep-29 01:12 315 2 gusting 4 20.0
2016-Sep-29 01:07 306 2 gusting 5 20.0
2016-Sep-29 00:57 317 2 gusting 4 20.0
2016-Sep-29 00:42 315 2 gusting 6 20.0
2016-Sep-29 00:37 305 3 gusting 6 20.0
2016-Sep-29 00:17 328 2 gusting 6 20.0
2016-Sep-28 23:57 307 4 gusting 6 20.0
2016-Sep-28 23:52 310 6 gusting 8 19.4
2016-Sep-28 23:47 304 4 gusting 6 19.4
2016-Sep-28 23:42 305 5 gusting 7 19.4
2016-Sep-28 23:37 307 4 gusting 6 19.4
2016-Sep-28 23:32 311 4 gusting 7 19.4
2016-Sep-28 23:22 308 4 gusting 6 19.4
2016-Sep-28 23:12 302 4 gusting 6 19.4
2016-Sep-28 22:52 308 3 gusting 6 20.0
2016-Sep-28 22:47 311 2 gusting 6 20.0
2016-Sep-28 22:42 321 2 gusting 4 20.0
2016-Sep-28 22:37 321 2 gusting 4 20.0
2016-Sep-28 22:32 318 2 gusting 4 20.0
2016-Sep-28 22:27 317 2 gusting 4 20.6
2016-Sep-28 22:22 321 2 gusting 5 20.6
2016-Sep-28 22:12 030 1 gusting 2 20.6
2016-Sep-28 22:02 032 1 gusting 2 20.6
2016-Sep-28 21:52 032 0 gusting 2 21.1
2016-Sep-28 21:47 032 1 gusting 2 21.1
2016-Sep-28 21:42 032 1 gusting 2 21.1
2016-Sep-28 21:32 032 1 gusting 4 21.1
2016-Sep-28 21:27 034 0 gusting 2 21.1
2016-Sep-28 21:22 034 0 gusting 1 21.1
2016-Sep-28 21:17 034 0 gusting 2 21.1
2016-Sep-28 21:12 034 0 gusting 4 21.1
2016-Sep-28 21:07 034 1 gusting 2 21.1
2016-Sep-28 20:57 034 0 gusting 2 21.1
2016-Sep-28 20:52 033 0 gusting 2 21.1
2016-Sep-28 20:42 034 2 gusting 4 21.1
2016-Sep-28 20:32 034 0 gusting 2 21.1
2016-Sep-28 20:22 034 1 gusting 2 21.1
2016-Sep-28 20:07 034 0 gusting 2 21.1
2016-Sep-28 19:47 034 0 gusting 2 21.1
2016-Sep-28 19:42 034 1 gusting 2 21.1
2016-Sep-28 19:32 044 2 gusting 2 21.7
2016-Sep-28 19:12 044 1 gusting 2 21.7
2016-Sep-28 19:07 044 1 gusting 2 22.2
2016-Sep-28 19:02 050 2 gusting 6 22.2
2016-Sep-28 18:47 066 4 gusting 6 22.2
2016-Sep-28 18:32 076 4 gusting 6 22.2
2016-Sep-28 18:17 084 5 gusting 8 22.2
2016-Sep-28 18:12 069 4 gusting 8 22.2
2016-Sep-28 18:07 086 4 gusting 8 22.2
2016-Sep-28 17:47 091 4 gusting 8 22.8
2016-Sep-28 17:32 080 5 gusting 8 22.8
2016-Sep-28 17:27 101 6 gusting 8 22.8
2016-Sep-28 17:22 090 5 gusting 10 22.8
2016-Sep-28 17:17 095 4 gusting 8 22.8
2016-Sep-28 16:57 098 6 gusting 10 23.3
2016-Sep-28 16:37 084 6 gusting 10 23.3
2016-Sep-28 16:32 106 4 gusting 10 23.3
2016-Sep-28 16:27 101 6 gusting 11 23.3
2016-Sep-28 16:07 101 6 gusting 11 23.9
2016-Sep-28 15:57 102 6 gusting 11 23.9
2016-Sep-28 15:42 100 4 gusting 8 23.9
2016-Sep-28 15:37 104 5 gusting 8 23.9
2016-Sep-28 15:32 059 4 gusting 7 24.4
2016-Sep-28 15:27 064 4 gusting 10 24.4
2016-Sep-28 15:22 096 7 gusting 13 23.9
2016-Sep-28 14:47 055 6 gusting 11 24.4
2016-Sep-28 14:17 115 8 gusting 13 24.4
2016-Sep-28 14:07 095 9 gusting 15 24.4
2016-Sep-28 13:52 112 9 gusting 14 24.4
2016-Sep-28 13:47 106 7 gusting 14 25.0
2016-Sep-28 13:42 100 10 gusting 15 25.0
2016-Sep-28 13:27 107 8 gusting 14 24.4
2016-Sep-28 13:22 098 11 gusting 15 24.4
2016-Sep-28 12:57 098 7 gusting 17 25.0
2016-Sep-28 12:47 096 7 gusting 14 25.6
2016-Sep-28 12:37 107 12 gusting 17 25.0
2016-Sep-28 12:32 105 10 gusting 19 25.0
2016-Sep-28 12:22 098 10 gusting 15 25.6
2016-Sep-28 12:12 085 12 gusting 18 25.0
2016-Sep-28 12:02 103 10 gusting 17 25.6
2016-Sep-28 11:32 096 8 gusting 15 25.6
2016-Sep-28 11:22 078 7 gusting 17 25.6
2016-Sep-28 11:02 108 8 gusting 14 25.0
2016-Sep-28 10:52 063 1 gusting 6 25.0
2016-Sep-28 10:32 061 6 gusting 8 23.9
2016-Sep-28 10:27 051 5 gusting 8 24.4
2016-Sep-28 10:07 073 2 gusting 6 23.9
2016-Sep-28 09:57 046 4 gusting 6 23.9
2016-Sep-28 09:52 063 1 gusting 6 23.3
2016-Sep-28 09:47 061 4 gusting 10 23.3
2016-Sep-28 09:42 054 5 gusting 10 23.3
2016-Sep-28 09:27 024 3 gusting 6 23.3
2016-Sep-28 09:12 065 1 gusting 6 22.8
2016-Sep-28 09:07 049 3 gusting 7 22.8
2016-Sep-28 09:02 058 4 gusting 7 22.8
2016-Sep-28 08:57 060 2 gusting 6 22.8
2016-Sep-28 08:37 003 4 gusting 6 22.2
2016-Sep-28 08:32 005 4 gusting 6 22.2
2016-Sep-28 08:27 011 4 gusting 6 22.2
2016-Sep-28 08:17 002 4 gusting 7 21.7
2016-Sep-28 08:12 002 4 gusting 10 21.7
2016-Sep-28 08:07 002 6 gusting 10 21.7
2016-Sep-28 08:02 016 5 gusting 10 21.7
2016-Sep-28 07:57 344 2 gusting 10 21.7
2016-Sep-28 07:47 002 2 gusting 6 21.1
2016-Sep-28 07:42 349 2 gusting 7 21.1
2016-Sep-28 07:37 351 4 gusting 6 21.1
2016-Sep-28 07:27 334 4 gusting 10 20.6
2016-Sep-28 07:17 358 5 gusting 8 20.6
2016-Sep-28 06:52 349 4 gusting 10 20.0
2016-Sep-28 06:37 349 4 gusting 7 19.4
2016-Sep-28 06:27 344 19.4
2016-Sep-28 06:22 344 18.9
2016-Sep-28 06:17 344 18.9
2016-Sep-28 06:12 346 0 gusting 2 18.9
2016-Sep-28 06:02 346 2 gusting 4 18.9
2016-Sep-28 05:57 346 1 gusting 6 18.9
2016-Sep-28 05:52 311 2 gusting 6 18.9
2016-Sep-28 05:47 316 4 gusting 6 18.9
2016-Sep-28 05:42 311 2 gusting 6 18.9
2016-Sep-28 05:17 299 2 gusting 6 19.4
2016-Sep-28 05:02 330 1 gusting 4 19.4
2016-Sep-28 04:57 343 0 gusting 6 19.4
2016-Sep-28 04:42 335 3 gusting 6 19.4
2016-Sep-28 04:32 315 2 gusting 6 19.4
2016-Sep-28 04:27 337 1 gusting 5 19.4
2016-Sep-28 04:22 338 2 gusting 6 19.4
2016-Sep-28 04:07 343 2 gusting 7 19.4
2016-Sep-28 04:02 336 2 gusting 6 19.4
2016-Sep-28 03:52 335 0 gusting 4 20.0
2016-Sep-28 03:37 354 3 gusting 7 20.0
2016-Sep-28 03:27 359 1 gusting 5 19.4
2016-Sep-28 03:07 300 2 gusting 6 19.4
2016-Sep-28 02:57 329 2 gusting 5 19.4
2016-Sep-28 02:52 321 1 gusting 5 19.4
2016-Sep-28 02:47 320 2 gusting 7 19.4
2016-Sep-28 02:22 303 4 gusting 7 19.4
2016-Sep-28 01:57 309 1 gusting 4 19.4
2016-Sep-28 01:52 302 2 gusting 6 19.4
2016-Sep-28 01:47 309 2 gusting 5 19.4
2016-Sep-28 01:42 302 2 gusting 5 20.0
2016-Sep-28 01:37 297 20.0
2016-Sep-28 01:32 297 3 gusting 5 19.4
2016-Sep-28 01:22 301 2 gusting 6 19.4
2016-Sep-28 01:17 336 19.4
2016-Sep-28 01:02 318 1 gusting 4 19.4
2016-Sep-28 00:57 311 2 gusting 5 19.4
2016-Sep-28 00:52 344 2 gusting 4 20.0
2016-Sep-28 00:42 344 1 gusting 2 20.0
2016-Sep-28 00:27 344 20.0
2016-Sep-28 00:17 344 20.0
2016-Sep-28 00:12 344 1 gusting 4 20.0
2016-Sep-28 00:07 344 0 gusting 2 20.0
2016-Sep-27 23:57 344 20.0
2016-Sep-27 23:47 343 0 gusting 2 20.0
2016-Sep-27 23:37 345 3 gusting 4 19.4
2016-Sep-27 23:27 350 1 gusting 5 19.4
2016-Sep-27 23:17 315 20.0
2016-Sep-27 23:07 315 3 gusting 5 20.0
2016-Sep-27 23:02 319 20.6
2016-Sep-27 22:57 319 20.0
2016-Sep-27 22:42 319 1 gusting 2 20.0
2016-Sep-27 22:32 311 20.0
2016-Sep-27 22:22 311 20.6
2016-Sep-27 22:17 311 1 gusting 2 20.6
2016-Sep-27 22:12 311 20.6
2016-Sep-27 21:47 086 21.1
2016-Sep-27 21:42 086 21.1
2016-Sep-27 21:37 086 21.1
2016-Sep-27 21:17 056 3 gusting 7 21.7
2016-Sep-27 21:02 096 5 gusting 8 22.2
2016-Sep-27 20:57 075 4 gusting 7 22.2
2016-Sep-27 20:52 104 1 gusting 6 22.2
2016-Sep-27 20:47 100 5 gusting 10 22.8
2016-Sep-27 20:42 136 2 gusting 5 22.8
2016-Sep-27 20:27 163 22.8
2016-Sep-27 20:22 163 23.3
2016-Sep-27 20:12 163 0 gusting 2 22.8
2016-Sep-27 20:02 163 0 gusting 2 22.8
2016-Sep-27 19:57 163 22.8
2016-Sep-27 19:52 163 0 gusting 2 22.8
2016-Sep-27 19:37 163 22.8
2016-Sep-27 19:27 163 1 gusting 2 22.8
2016-Sep-27 19:22 163 0 gusting 2 22.8
2016-Sep-27 19:17 163 0 gusting 4 22.8
2016-Sep-27 19:12 162 0 gusting 2 23.3
2016-Sep-27 19:07 162 0 gusting 2 23.3
2016-Sep-27 18:52 182 1 gusting 2 23.3
2016-Sep-27 18:37 184 0 gusting 2 23.3
2016-Sep-27 18:17 184 1 gusting 2 22.8
2016-Sep-27 18:12 184 0 gusting 2 22.8
2016-Sep-27 18:07 184 0 gusting 2 22.8
2016-Sep-27 17:37 168 1 gusting 4 23.3
2016-Sep-27 16:42 175 2 gusting 6 23.3
2016-Sep-27 16:32 175 1 gusting 6 23.9
2016-Sep-27 16:17 207 3 gusting 10 23.3
2016-Sep-27 16:12 164 3 gusting 8 23.3
2016-Sep-27 16:07 206 0 gusting 7 23.9
2016-Sep-27 15:52 199 4 gusting 7 23.9
2016-Sep-27 15:47 201 2 gusting 6 23.9
2016-Sep-27 15:22 164 3 gusting 10 23.3
2016-Sep-27 15:12 165 1 gusting 7 23.9
2016-Sep-27 15:07 205 5 gusting 12 23.9
2016-Sep-27 14:52 162 5 gusting 10 23.9
2016-Sep-27 14:47 224 1 gusting 10 23.9
2016-Sep-27 14:42 228 2 gusting 6 23.9
2016-Sep-27 14:37 177 4 gusting 7 23.9
2016-Sep-27 14:27 180 1 gusting 5 23.9
2016-Sep-27 14:22 182 4 gusting 10 23.9
2016-Sep-27 14:12 150 2 gusting 8 23.9
2016-Sep-27 13:57 173 4 gusting 10 23.9
2016-Sep-27 13:37 136 5 gusting 10 23.9
2016-Sep-27 13:27 187 3 gusting 10 23.9
2016-Sep-27 12:57 133 4 gusting 7 23.9
2016-Sep-27 12:52 148 4 gusting 8 23.9
2016-Sep-27 12:47 139 4 gusting 7 23.9
2016-Sep-27 12:42 146 4 gusting 10 23.9
2016-Sep-27 12:07 129 4 gusting 10 23.9
2016-Sep-27 11:57 117 5 gusting 10 23.3
2016-Sep-27 11:52 123 5 gusting 10 23.9
2016-Sep-27 11:32 144 6 gusting 10 23.3
2016-Sep-27 11:17 143 4 gusting 7 23.9
2016-Sep-27 11:12 149 4 gusting 7 23.9
2016-Sep-27 10:57 095 4 gusting 7 23.9
2016-Sep-27 10:52 109 4 gusting 10 23.9
2016-Sep-27 10:42 083 2 gusting 8 23.3
2016-Sep-27 10:37 102 6 gusting 12 23.3
2016-Sep-27 10:32 113 2 gusting 8 23.3
2016-Sep-27 10:27 112 5 gusting 8 23.3
2016-Sep-27 10:12 073 5 gusting 8 23.3
2016-Sep-27 09:57 095 2 gusting 7 22.8
2016-Sep-27 09:52 091 6 gusting 10 22.8
2016-Sep-27 09:37 077 4 gusting 6 22.8
2016-Sep-27 09:17 101 4 gusting 7 22.8
2016-Sep-27 09:07 074 5 gusting 6 22.8
2016-Sep-27 09:02 119 2 gusting 8 22.8
2016-Sep-27 08:57 095 4 gusting 10 22.8
2016-Sep-27 08:52 109 4 gusting 8 22.8
2016-Sep-27 08:47 081 1 gusting 6 23.3
2016-Sep-27 08:42 046 1 gusting 4 23.3
2016-Sep-27 08:27 026 1 gusting 5 22.8
2016-Sep-27 08:22 022 1 gusting 5 22.8
2016-Sep-27 08:17 096 4 gusting 6 22.8